Home   Weather   Mount Vernon   Past weeks
Flag for USA

Past Weather in Mount Vernon, USA — Yesterday and Last 2 Weeks

Now
86 °F

Scattered clouds.


Feels Like: 102 °F
Forecast: 91 / 73 °F
Wind: 7 mph from Southwest

Location: Knox County Airport

Current Time: Jul 19, 2019 at 1:04:02 pm

Latest Report: Jul 19, 2019 at 12:18 pm


Visibility: 7 mi

Pressure: 30.00 "Hg

Humidity: 84%

Dew Point: 81 °F

Location of Mount VernonLocation

Past Weather in Mount Vernon — Graph

°F

Mount Vernon Temperature Yesterday

Maximum temperature yesterday: 90 °F (at 3:56 pm)
Minimum temperature yesterday: 68 °F (at 5:57 am)
Average temperature yesterday: 79 °F

High & Low Weather Summary for the Past Weeks

 TemperatureHumidityPressure
High91 °F (Jul 15, 3:55 pm)100% (Jul 5, 12:15 am)30.18 "Hg (Jul 5, 12:15 am)
Low59 °F (Jul 13, 5:38 am)43% (Jul 13, 3:38 pm)29.82 "Hg (Jul 11, 5:15 pm)
Average76 °F83%30.02 "Hg
* Reported Jul 4 11:15 am — Jul 19 11:55 am, Mount Vernon. Weather by CustomWeather, © 2019

Note: Actual official high and low records may vary slightly from our data, if they occured in-between our weather recording intervals... More about our weather records

Advertising

Mount Vernon Weather History for the Previous 24 Hours

Scroll right to see more
 ConditionsComfort  
Time TempWeatherWind HumidityBarometerVisibility
11:55 am
Fri, Jul 19
86 °FPartly sunny.8 mph84%30.00 "Hg10 mi
11:35 am86 °FScattered clouds.5 mph84%30.00 "Hg7 mi
11:15 am84 °FScattered clouds.10 mph84%30.01 "Hg10 mi
10:56 am84 °FScattered clouds.9 mph84%30.01 "Hg7 mi
10:38 am82 °FScattered clouds.10 mph89%30.02 "Hg7 mi
10:15 am82 °FPartly sunny.9 mph89%30.02 "Hg7 mi
9:35 am79 °FFog.6 mph100%30.01 "Hg5 mi
9:16 am77 °FFog.10 mph100%30.01 "Hg5 mi
8:58 am77 °FFog.8 mph100%30.00 "Hg4 mi
8:35 am77 °FFog.10 mph100%30.00 "Hg4 mi
8:15 am75 °FFog.10 mph100%30.00 "Hg5 mi
7:56 am75 °FFog.6 mph100%29.99 "Hg5 mi
7:36 am75 °FFog.6 mph100%29.99 "Hg5 mi
7:18 am73 °FFog.6 mph100%29.98 "Hg5 mi
6:55 am73 °FFog.5 mph100%29.98 "Hg4 mi
6:35 am73 °FFog.6 mph100%29.98 "Hg5 mi
6:15 am73 °FFog.5 mph100%29.98 "Hg5 mi
5:56 am72 °FFog.5 mph100%29.98 "Hg5 mi
5:38 am72 °FClear.3 mph100%29.98 "Hg7 mi
5:15 am73 °FClear.3 mph100%29.98 "Hg7 mi
4:35 am73 °FClear.5 mph100%29.97 "Hg7 mi
4:17 am72 °FClear.5 mph100%29.97 "Hg7 mi
3:58 am72 °FClear.3 mph100%29.98 "Hg7 mi
3:35 am72 °FClear.3 mph100%29.98 "Hg7 mi
3:15 am72 °FClear.No wind100%29.98 "Hg7 mi
2:55 am72 °FClear.No wind100%29.98 "Hg7 mi
2:37 am72 °FClear.No wind100%29.98 "Hg10 mi
2:19 am72 °FClear.No wind100%29.99 "Hg10 mi
1:55 am72 °FClear.3 mph100%29.98 "Hg10 mi
1:35 am72 °FClear.3 mph100%29.99 "Hg10 mi
1:15 am72 °FClear.3 mph100%29.98 "Hg10 mi
12:57 am72 °FClear.3 mph100%29.98 "Hg10 mi
12:39 am72 °FClear.No wind100%29.98 "Hg10 mi
12:16 am73 °FClear.No wind94%29.97 "Hg10 mi
11:55 pm
Thu, Jul 18
73 °FClear.3 mph94%29.97 "Hg10 mi
11:35 pm73 °FClear.3 mph94%29.97 "Hg10 mi
11:17 pm73 °FClear.3 mph94%29.96 "Hg10 mi
10:59 pm73 °FClear.3 mph100%29.96 "Hg10 mi
10:35 pm75 °FClear.5 mph94%29.97 "Hg10 mi
10:17 pm75 °FClear.5 mph94%29.96 "Hg10 mi
9:59 pm77 °FClear.5 mph89%29.96 "Hg10 mi
9:35 pm77 °FClear.5 mph89%29.95 "Hg10 mi
9:15 pm79 °FClear.6 mph84%29.95 "Hg10 mi
8:55 pm79 °FSunny.6 mph89%29.94 "Hg10 mi
8:19 pm81 °FSunny.5 mph89%29.92 "Hg10 mi
7:55 pm81 °FSunny.6 mph89%29.91 "Hg10 mi
7:36 pm81 °FSunny.6 mph89%29.91 "Hg10 mi
7:15 pm81 °FSunny.6 mph89%29.90 "Hg10 mi
6:57 pm81 °FSunny.7 mph89%29.88 "Hg10 mi
6:39 pm82 °FSunny.9 mph84%29.90 "Hg10 mi
6:15 pm82 °FSunny.3 mph84%29.95 "Hg10 mi
5:55 pm84 °FSunny.No wind79%29.95 "Hg10 mi
5:35 pm86 °FScattered clouds.6 mph70%29.97 "Hg10 mi
5:17 pm88 °FScattered clouds.5 mph66%29.97 "Hg10 mi
4:59 pm90 °FSunny.5 mph63%29.97 "Hg10 mi
4:35 pm88 °FSunny.7 mph62%29.98 "Hg10 mi
4:15 pm90 °FSunny.5 mph55%29.98 "Hg10 mi
3:56 pm90 °FSunny.5 mph63%29.98 "Hg10 mi
3:37 pm86 °FSunny.5 mph70%29.99 "Hg10 mi
3:19 pm88 °FSunny.5 mph62%29.99 "Hg10 mi
2:55 pm88 °FScattered clouds.6 mph62%30.00 "Hg10 mi
2:35 pm88 °FSunny.3 mph62%30.00 "Hg10 mi
2:16 pm88 °FScattered clouds.6 mph66%30.00 "Hg10 mi
1:58 pm88 °FScattered clouds.7 mph66%30.01 "Hg10 mi
1:39 pm86 °FScattered clouds.6 mph70%30.02 "Hg10 mi
1:15 pm86 °FScattered clouds.6 mph70%30.02 "Hg10 mi
Weather by CustomWeather, © 2019

See weather overview